FW3173 Weather Reports


time (UTC)temp
C
wind
direction
speed
KPH
gust
KPH
rain 1hr
cm
rain 24hr
cm
rain mn
cm
humidity
%
barometer
mb
20260504204618 9 279 8.0 16.1 0.00 1.50 0.81 72 1003.2
20260504203037 9 246 6.4 20.9 0.00 1.50 0.81 72 1003.2
20260504201534 9 270 11.3 30.6 0.00 1.50 0.81 71 1003.0
20260504200038 9 239 12.9 27.4 0.00 1.50 0.81 70 1002.9
20260504194536 9 265 16.1 33.8 0.00 1.65 0.81 73 1002.6
20260504193031 8 199 14.5 27.4 0.00 1.65 0.81 75 1002.6
20260504191530 8 213 14.5 33.8 0.00 1.65 0.81 78 1002.4
20260504190030 9 298 22.5 37.0 0.00 1.65 0.81 73 1002.0
20260504184525 9 270 20.9 40.2 0.00 1.78 0.81 73 1001.7
20260504183022 9 229 20.9 45.1 0.00 1.78 0.81 76 1001.6
20260504181518 8 270 22.5 41.8 0.00 1.78 0.81 78 1001.4
20260504180016 8 239 20.9 41.8 0.00 1.78 0.81 79 1001.3
20260504174514 8 275 24.1 49.9 0.00 1.78 0.81 81 1001.0
20260504173009 7 200 22.5 41.8 0.00 1.78 0.81 83 1000.8
20260504171606 7 228 24.1 45.1 0.00 1.78 0.81 87 1000.6
20260504081530 2 270 35.4 57.9 0.05 1.27 0.33 99 983.0
20260504044549 3 275 8.0 20.9 0.08 1.09 0.13 98 976.7
20260504043047 3 285 8.0 16.1 0.13 1.09 0.13 97 976.6
20260504041545 3 295 4.8 9.7 0.10 1.07 0.10 97 976.5
20260504040042 3 350 3.2 12.9 0.05 1.02 0.05 97 976.5
20260504034542 3 44 1.6 11.3 0.05 0.99 0.05 97 976.6
20260504033040 4 45 3.2 11.3 0.00 0.97 0.00 97 976.7
20260504031537 4 323 1.6 24.1 0.03 0.97 0.00 96 976.8
20260504030040 4 52 6.4 17.7 0.03 0.97 0.00 97 977.2
20260504024531 4 85 8.0 24.1 0.03 0.97 0.97 96 977.5
20260504023031 5 107 9.7 30.6 0.03 0.97 0.97 97 978.0
20260504021528 5 141 11.3 19.3 0.00 0.94 0.94 97 978.8
20260504020025 5 112 8.0 25.7 0.00 0.94 0.94 97 979.2
20260504014522 5 59 8.0 27.4 0.03 0.94 0.94 97 979.4
20260504013019 5 85 11.3 27.4 0.03 0.94 0.94 97 980.0
20260504011518 5 130 9.7 32.2 0.03 0.94 0.94 97 980.5
20260504010013 5 73 11.3 33.8 0.03 0.94 0.94 97 980.9
20260504004519 5 42 11.3 33.8 0.00 0.91 0.91 97 982.1
20260504003009 5 22 14.5 30.6 0.03 0.91 0.91 97 982.3
20260504001506 5 104 9.7 20.9 0.03 0.91 0.91 97 983.0
20260504000004 5 29 8.0 22.5 0.05 0.91 0.91 97 984.5
20260503234504 4 44 11.3 27.4 0.15 0.91 0.91 97 984.3
20260503233059 4 63 14.5 49.9 0.15 0.89 0.89 97 985.0
20260503231555 3 358 16.1 49.9 0.15 0.89 0.89 96 985.8
20260503230058 3 77 16.1 43.5 0.15 0.89 0.89 96 986.5
20260503224549 3 26 11.3 37.0 0.08 0.79 0.79 96 988.2
20260503223046 3 49 14.5 27.4 0.10 0.76 0.76 96 989.2
20260503221541 3 94 9.7 33.8 0.18 0.71 0.71 96 990.4
20260503220047 4 348 11.3 30.6 0.28 0.71 0.71 96 991.5
20260503214537 4 49 9.7 27.4 0.30 0.71 0.71 96 992.2
20260503213032 5 84 6.4 17.7 0.28 0.66 0.66 95 993.9
20260503211528 5 83 8.0 17.7 0.23 0.56 0.56 95 994.7
20260503210027 5 113 9.7 30.6 0.15 0.43 0.43 95 995.2